Time,TemperatureF,DewpointF,PressureIn,WindDirection,WindDirectionDegrees,WindSpeedMPH,WindSpeedGustMPH,Humidity,HourlyPrecipIn,Conditions,Clouds,dailyrainin,SolarRadiationWatts/m^2,SoftwareType,DateUTC
2013-03-03 00:21:00,38.0,23.0,-100.00,SSW,194,11.0,15.0,55,0.00,,,0.00,0.000000,,2013-03-03 07:21:00,
2013-03-03 00:31:00,38.0,23.0,-100.00,SSW,194,11.0,15.0,55,0.00,,,0.00,0.000000,,2013-03-03 07:31:00,
2013-03-03 00:42:00,38.0,23.0,-100.00,SSW,194,11.0,15.0,55,0.00,,,0.00,0.000000,,2013-03-03 07:42:00,
2013-03-03 00:51:00,38.0,23.0,-100.00,SSW,194,11.0,15.0,55,0.00,,,0.00,0.000000,,2013-03-03 07:51:00,
2013-03-03 00:52:00,38.0,25.0,-100.00,SSW,195,15.0,27.0,60,0.00,,,0.00,0.000000,,2013-03-03 07:52:00,
2013-03-03 01:21:00,38.0,25.0,-100.00,SSW,195,15.0,27.0,60,0.00,,,0.00,0.000000,,2013-03-03 08:21:00,
2013-03-03 01:31:00,38.0,25.0,-100.00,SSW,195,15.0,27.0,60,0.00,,,0.00,0.000000,,2013-03-03 08:31:00,
2013-03-03 01:41:00,38.0,25.0,-100.00,SSW,195,15.0,27.0,60,0.00,,,0.00,0.000000,,2013-03-03 08:41:00,
2013-03-03 02:21:00,37.0,25.0,-100.00,South,190,15.0,24.0,61,0.00,,,0.00,0.000000,,2013-03-03 09:21:00,
2013-03-03 02:32:00,37.0,25.0,-100.00,South,190,15.0,24.0,61,0.00,,,0.00,0.000000,,2013-03-03 09:32:00,
2013-03-03 02:41:00,37.0,25.0,-100.00,South,190,15.0,24.0,61,0.00,,,0.00,0.000000,,2013-03-03 09:41:00,
2013-03-03 02:51:00,37.0,25.0,-100.00,South,190,15.0,24.0,61,0.00,,,0.00,0.000000,,2013-03-03 09:51:00,
2013-03-03 03:11:00,34.0,24.0,-100.00,South,178,15.0,25.0,66,0.00,,,0.00,0.000000,,2013-03-03 10:11:00,
2013-03-03 03:21:00,34.0,24.0,-100.00,South,178,15.0,25.0,66,0.00,,,0.00,0.000000,,2013-03-03 10:21:00,
2013-03-03 03:32:00,34.0,24.0,-100.00,South,178,15.0,25.0,66,0.00,,,0.00,0.000000,,2013-03-03 10:32:00,
2013-03-03 03:42:00,34.0,24.0,-100.00,South,178,15.0,25.0,66,0.00,,,0.00,0.000000,,2013-03-03 10:42:00,
2013-03-03 03:51:00,34.0,24.0,-100.00,South,178,15.0,25.0,66,0.00,,,0.00,0.000000,,2013-03-03 10:51:00,
2013-03-03 03:52:00,35.0,24.0,-100.00,SW,214,18.0,29.0,65,0.00,,,0.00,0.000000,,2013-03-03 10:52:00,
2013-03-03 04:11:00,35.0,24.0,-100.00,SW,214,18.0,29.0,65,0.00,,,0.00,0.000000,,2013-03-03 11:11:00,
2013-03-03 04:21:00,35.0,24.0,-100.00,SW,214,18.0,29.0,65,0.00,,,0.00,0.000000,,2013-03-03 11:21:00,
2013-03-03 04:31:00,35.0,24.0,-100.00,SW,214,18.0,29.0,65,0.00,,,0.00,0.000000,,2013-03-03 11:31:00,
2013-03-03 04:41:00,35.0,24.0,-100.00,SW,214,18.0,29.0,65,0.00,,,0.00,0.000000,,2013-03-03 11:41:00,
2013-03-03 04:52:00,35.0,24.0,-100.00,SSW,207,20.0,30.0,64,0.00,,,0.00,0.000000,,2013-03-03 11:52:00,
2013-03-03 05:11:00,35.0,24.0,-100.00,SSW,207,20.0,30.0,64,0.00,,,0.00,0.000000,,2013-03-03 12:11:00,
2013-03-03 05:21:00,35.0,24.0,-100.00,SSW,207,20.0,30.0,64,0.00,,,0.00,0.000000,,2013-03-03 12:21:00,
2013-03-03 05:32:00,35.0,24.0,-100.00,SSW,207,20.0,30.0,64,0.00,,,0.00,0.000000,,2013-03-03 12:32:00,
2013-03-03 05:42:00,35.0,24.0,-100.00,SSW,207,20.0,30.0,64,0.00,,,0.00,0.000000,,2013-03-03 12:42:00,
2013-03-03 06:11:00,33.0,23.0,-100.00,SSW,207,22.0,33.0,65,0.00,,,0.00,0.000000,,2013-03-03 13:11:00,
2013-03-03 06:21:00,33.0,23.0,-100.00,SSW,207,22.0,33.0,65,0.00,,,0.00,0.000000,,2013-03-03 13:21:00,
2013-03-03 06:32:00,33.0,23.0,-100.00,SSW,207,22.0,33.0,65,0.00,,,0.00,0.000000,,2013-03-03 13:32:00,
2013-03-03 06:41:00,33.0,23.0,-100.00,SSW,207,22.0,33.0,65,0.00,,,0.00,0.000000,,2013-03-03 13:41:00,
2013-03-03 06:51:00,33.0,23.0,-100.00,SSW,207,22.0,33.0,65,0.00,,,0.00,0.000000,,2013-03-03 13:51:00,
2013-03-03 06:52:00,33.0,23.0,-100.00,SSW,202,22.0,35.0,67,0.00,,,0.00,0.000000,,2013-03-03 13:52:00,
2013-03-03 07:21:00,33.0,23.0,-100.00,SSW,202,22.0,35.0,67,0.00,,,0.00,0.000000,,2013-03-03 14:21:00,
2013-03-03 07:32:00,33.0,23.0,-100.00,SSW,202,22.0,35.0,67,0.00,,,0.00,0.000000,,2013-03-03 14:32:00,
2013-03-03 07:42:00,33.0,23.0,-100.00,SSW,202,22.0,35.0,67,0.00,,,0.00,0.000000,,2013-03-03 14:42:00,
2013-03-03 08:11:00,34.0,25.0,-100.00,SSW,208,20.0,39.0,70,0.00,,,0.00,19.000000,,2013-03-03 15:11:00,
2013-03-03 08:22:00,34.0,25.0,-100.00,SSW,208,20.0,39.0,70,0.00,,,0.00,19.000000,,2013-03-03 15:22:00,
2013-03-03 08:32:00,34.0,25.0,-100.00,SSW,208,20.0,39.0,70,0.00,,,0.00,19.000000,,2013-03-03 15:32:00,
2013-03-03 08:42:00,34.0,25.0,-100.00,SSW,208,20.0,39.0,70,0.00,,,0.00,19.000000,,2013-03-03 15:42:00,
2013-03-03 08:51:00,34.0,25.0,-100.00,SSW,208,20.0,39.0,70,0.00,,,0.00,19.000000,,2013-03-03 15:51:00,
2013-03-03 09:12:00,33.0,21.0,-100.00,SSW,206,18.0,33.0,62,0.00,,,0.00,115.000000,,2013-03-03 16:12:00,
2013-03-03 09:21:00,33.0,21.0,-100.00,SSW,206,18.0,33.0,62,0.00,,,0.00,115.000000,,2013-03-03 16:21:00,
2013-03-03 09:31:00,33.0,21.0,-100.00,SSW,206,18.0,33.0,62,0.00,,,0.00,115.000000,,2013-03-03 16:31:00,
2013-03-03 09:41:00,33.0,21.0,-100.00,SSW,206,18.0,33.0,62,0.00,,,0.00,115.000000,,2013-03-03 16:41:00,
2013-03-03 09:51:00,33.0,21.0,-100.00,SSW,206,18.0,33.0,62,0.00,,,0.00,115.000000,,2013-03-03 16:51:00,
2013-03-03 09:52:00,34.0,21.0,-100.00,SSW,210,20.0,32.0,59,0.00,,,0.00,302.000000,,2013-03-03 16:52:00,
2013-03-03 10:11:00,34.0,21.0,-100.00,SSW,210,20.0,32.0,59,0.00,,,0.00,302.000000,,2013-03-03 17:11:00,
2013-03-03 10:22:00,34.0,21.0,-100.00,SSW,210,20.0,32.0,59,0.00,,,0.00,302.000000,,2013-03-03 17:22:00,
2013-03-03 10:32:00,34.0,21.0,-100.00,SSW,210,20.0,32.0,59,0.00,,,0.00,302.000000,,2013-03-03 17:32:00,
2013-03-03 10:42:00,34.0,21.0,-100.00,SSW,210,20.0,32.0,59,0.00,,,0.00,302.000000,,2013-03-03 17:42:00,
2013-03-03 10:52:00,36.0,21.0,-100.00,SSW,211,18.0,31.0,55,0.00,,,0.00,456.000000,,2013-03-03 17:52:00,
2013-03-03 11:21:00,36.0,21.0,-100.00,SSW,211,18.0,31.0,55,0.00,,,0.00,456.000000,,2013-03-03 18:21:00,
2013-03-03 11:31:00,36.0,21.0,-100.00,SSW,211,18.0,31.0,55,0.00,,,0.00,456.000000,,2013-03-03 18:31:00,
2013-03-03 11:41:00,36.0,21.0,-100.00,SSW,211,18.0,31.0,55,0.00,,,0.00,456.000000,,2013-03-03 18:41:00,
2013-03-03 12:11:00,28.0,24.0,-100.00,WNW,302,24.0,40.0,84,0.00,,,0.00,484.000000,,2013-03-03 19:11:00,
2013-03-03 12:21:00,28.0,24.0,-100.00,WNW,302,24.0,40.0,84,0.00,,,0.00,484.000000,,2013-03-03 19:21:00,
2013-03-03 12:31:00,28.0,24.0,-100.00,WNW,302,24.0,40.0,84,0.00,,,0.00,484.000000,,2013-03-03 19:31:00,
2013-03-03 12:42:00,28.0,24.0,-100.00,WNW,302,24.0,40.0,84,0.00,,,0.00,484.000000,,2013-03-03 19:42:00,
2013-03-03 12:51:00,28.0,24.0,-100.00,WNW,302,24.0,40.0,84,0.00,,,0.00,484.000000,,2013-03-03 19:51:00,
2013-03-03 12:52:00,25.0,24.0,-100.00,WNW,294,14.0,38.0,96,0.00,,,0.00,133.000000,,2013-03-03 19:52:00,
2013-03-03 13:11:00,25.0,24.0,-100.00,WNW,294,14.0,38.0,96,0.00,,,0.00,133.000000,,2013-03-03 20:11:00,
2013-03-03 13:21:00,25.0,24.0,-100.00,WNW,294,14.0,38.0,96,0.00,,,0.00,133.000000,,2013-03-03 20:21:00,
2013-03-03 13:32:00,25.0,24.0,-100.00,WNW,294,14.0,38.0,96,0.00,,,0.00,133.000000,,2013-03-03 20:32:00,
2013-03-03 13:42:00,25.0,24.0,-100.00,WNW,294,14.0,38.0,96,0.00,,,0.00,133.000000,,2013-03-03 20:42:00,
2013-03-03 14:11:00,22.0,20.0,-100.00,West,269,22.0,49.0,93,0.00,,,0.00,154.000000,,2013-03-03 21:11:00,
2013-03-03 14:21:00,22.0,20.0,-100.00,West,269,22.0,49.0,93,0.00,,,0.00,154.000000,,2013-03-03 21:21:00,
2013-03-03 14:31:00,22.0,20.0,-100.00,West,269,22.0,49.0,93,0.00,,,0.00,154.000000,,2013-03-03 21:31:00,
2013-03-03 14:41:00,22.0,20.0,-100.00,West,269,22.0,49.0,93,0.00,,,0.00,154.000000,,2013-03-03 21:41:00,
2013-03-03 14:51:00,22.0,20.0,-100.00,West,269,22.0,49.0,93,0.00,,,0.00,154.000000,,2013-03-03 21:51:00,
2013-03-03 14:52:00,23.0,10.0,-100.00,West,273,20.0,46.0,56,0.00,,,0.00,169.000000,,2013-03-03 21:52:00,
2013-03-03 15:11:00,23.0,10.0,-100.00,West,273,20.0,46.0,56,0.00,,,0.00,169.000000,,2013-03-03 22:11:00,
2013-03-03 15:21:00,23.0,10.0,-100.00,West,273,20.0,46.0,56,0.00,,,0.00,169.000000,,2013-03-03 22:21:00,
2013-03-03 15:31:00,23.0,10.0,-100.00,West,273,20.0,46.0,56,0.00,,,0.00,169.000000,,2013-03-03 22:31:00,
2013-03-03 15:42:00,23.0,10.0,-100.00,West,273,20.0,46.0,56,0.00,,,0.00,169.000000,,2013-03-03 22:42:00,
2013-03-03 15:52:00,24.0,8.0,-100.00,West,272,23.0,49.0,50,0.00,,,0.00,133.000000,,2013-03-03 22:52:00,
2013-03-03 16:11:00,24.0,8.0,-100.00,West,272,23.0,49.0,50,0.00,,,0.00,133.000000,,2013-03-03 23:11:00,
2013-03-03 16:21:00,24.0,8.0,-100.00,West,272,23.0,49.0,50,0.00,,,0.00,133.000000,,2013-03-03 23:21:00,
2013-03-03 16:31:00,24.0,8.0,-100.00,West,272,23.0,49.0,50,0.00,,,0.00,133.000000,,2013-03-03 23:31:00,
2013-03-03 16:41:00,24.0,8.0,-100.00,West,272,23.0,49.0,50,0.00,,,0.00,133.000000,,2013-03-03 23:41:00,
2013-03-03 17:11:00,25.0,7.0,-100.00,WNW,285,27.0,50.0,46,0.00,,,0.00,228.000000,,2013-03-04 00:11:00,
2013-03-03 17:21:00,25.0,7.0,-100.00,WNW,285,27.0,50.0,46,0.00,,,0.00,228.000000,,2013-03-04 00:21:00,
2013-03-03 17:32:00,25.0,7.0,-100.00,WNW,285,27.0,50.0,46,0.00,,,0.00,228.000000,,2013-03-04 00:32:00,
2013-03-03 17:41:00,25.0,7.0,-100.00,WNW,285,27.0,50.0,46,0.00,,,0.00,228.000000,,2013-03-04 00:41:00,
2013-03-03 17:51:00,25.0,7.0,-100.00,WNW,285,27.0,50.0,46,0.00,,,0.00,228.000000,,2013-03-04 00:51:00,
2013-03-03 18:21:00,19.0,16.0,-100.00,NW,306,23.0,44.0,88,0.00,,,0.00,31.000000,,2013-03-04 01:21:00,
2013-03-03 18:31:00,19.0,16.0,-100.00,NW,306,23.0,44.0,88,0.00,,,0.00,31.000000,,2013-03-04 01:31:00,
2013-03-03 18:42:00,19.0,16.0,-100.00,NW,306,23.0,44.0,88,0.00,,,0.00,31.000000,,2013-03-04 01:42:00,
2013-03-03 18:51:00,19.0,16.0,-100.00,NW,306,23.0,44.0,88,0.00,,,0.00,31.000000,,2013-03-04 01:51:00,
2013-03-03 18:52:00,17.0,15.0,-100.00,West,281,24.0,38.0,90,0.00,,,0.00,1.000000,,2013-03-04 01:52:00,
2013-03-03 19:11:00,17.0,15.0,-100.00,West,281,24.0,38.0,90,0.00,,,0.00,1.000000,,2013-03-04 02:11:00,
2013-03-03 19:22:00,17.0,15.0,-100.00,West,281,24.0,38.0,90,0.00,,,0.00,1.000000,,2013-03-04 02:22:00,
2013-03-03 19:31:00,17.0,15.0,-100.00,West,281,24.0,38.0,90,0.00,,,0.00,1.000000,,2013-03-04 02:31:00,
2013-03-03 19:41:00,17.0,15.0,-100.00,West,281,24.0,38.0,90,0.00,,,0.00,1.000000,,2013-03-04 02:41:00,
2013-03-03 19:52:00,15.0,12.0,-100.00,WSW,245,29.0,50.0,89,0.00,,,0.00,0.000000,,2013-03-04 02:52:00,
2013-03-03 20:21:00,15.0,12.0,-100.00,WSW,245,29.0,50.0,89,0.00,,,0.00,0.000000,,2013-03-04 03:21:00,
2013-03-03 20:32:00,15.0,12.0,-100.00,WSW,245,29.0,50.0,89,0.00,,,0.00,0.000000,,2013-03-04 03:32:00,
2013-03-03 20:41:00,15.0,12.0,-100.00,WSW,245,29.0,50.0,89,0.00,,,0.00,0.000000,,2013-03-04 03:41:00,
2013-03-03 21:22:00,14.0,11.0,-100.00,WSW,248,26.0,48.0,88,0.00,,,0.00,0.000000,,2013-03-04 04:22:00,
2013-03-03 21:32:00,14.0,11.0,-100.00,WSW,248,26.0,48.0,88,0.00,,,0.00,0.000000,,2013-03-04 04:32:00,
2013-03-03 21:42:00,14.0,11.0,-100.00,WSW,248,26.0,48.0,88,0.00,,,0.00,0.000000,,2013-03-04 04:42:00,
2013-03-03 21:51:00,14.0,11.0,-100.00,WSW,248,26.0,48.0,88,0.00,,,0.00,0.000000,,2013-03-04 04:51:00,
2013-03-03 21:52:00,12.0,9.0,-100.00,West,259,33.0,55.0,87,0.00,,,0.00,0.000000,,2013-03-04 04:52:00,
2013-03-03 22:11:00,12.0,9.0,-100.00,West,259,33.0,55.0,87,0.00,,,0.00,0.000000,,2013-03-04 05:11:00,
2013-03-03 22:22:00,12.0,9.0,-100.00,West,259,33.0,55.0,87,0.00,,,0.00,0.000000,,2013-03-04 05:22:00,
2013-03-03 22:31:00,12.0,9.0,-100.00,West,259,33.0,55.0,87,0.00,,,0.00,0.000000,,2013-03-04 05:31:00,
2013-03-03 22:42:00,12.0,9.0,-100.00,West,259,33.0,55.0,87,0.00,,,0.00,0.000000,,2013-03-04 05:42:00,
2013-03-03 23:11:00,11.0,8.0,-100.00,West,281,31.0,56.0,86,0.00,,,0.00,0.000000,,2013-03-04 06:11:00,
2013-03-03 23:21:00,11.0,8.0,-100.00,West,281,31.0,56.0,86,0.00,,,0.00,0.000000,,2013-03-04 06:21:00,
2013-03-03 23:31:00,11.0,8.0,-100.00,West,281,31.0,56.0,86,0.00,,,0.00,0.000000,,2013-03-04 06:31:00,
2013-03-03 23:42:00,11.0,8.0,-100.00,West,281,31.0,56.0,86,0.00,,,0.00,0.000000,,2013-03-04 06:42:00,
2013-03-03 23:51:00,11.0,8.0,-100.00,West,281,31.0,56.0,86,0.00,,,0.00,0.000000,,2013-03-04 06:51:00,